Flag for Poland Weather past 2 weeks in Bielsko-Biała, Poland

Now
40 °F

Overcast.


Feels Like: 36 °F
Forecast: 36 / 47 °F
Wind: 5 mph from Southwest

Location: Katowice

Current Time: Mar 31, 2015 at 1:35:54 AM

Latest Report: Mar 31, 2015 at 1:00 AM


Visibility: 13 mi

Pressure: 29.72 "Hg

Humidity: 68%

Dew point: 30 °F

Location of Bielsko-BiałaLocation

Historic Weather in Bielsko-Biała — Graph

°F

Bielsko-Biała temperature yesterday

Maximum temperature yesterday: 49 °F (at 12:00 PM)
Minimum temperature yesterday: 37 °F (at 2:00 PM)
Average temperature yesterday: 44 °F

Past Weeks' High & Low Weather Summary

 TemperatureHumidityPressure
High64 °F (Mar 25, 3:00 PM)98% (Mar 29, 6:00 AM)30.63 "Hg (Mar 29, 6:00 AM)
Low22 °F (Mar 23, 3:00 AM)27% (Mar 21, 2:00 PM)29.29 "Hg (Mar 30, 5:00 AM)
Average43 °F67%30.08 "Hg
* Reported Mar 15 11:00 PM — Midnight between Mar 30 and Mar 31, Bielsko-Biała, Weather by CustomWeather, © 2015

Note: Actual official high and low records may vary slightly from our data, if they occured in-between our weather recording intervals... More about our weather records

Advertising

Bielsko-Biała weather history for previous 24 hours

 ConditionsComfort  
Time TempWeatherWind HumidityBarometerVisibility
12:00 AM
Tue, Mar 31
40 °FOvercast.6 mph65%29.70 "Hg12 mi
11:00 PM
Mon, Mar 30
41 °FOvercast.6 mph64%29.66 "Hg12 mi
10:00 PM42 °FOvercast.6 mph65%29.64 "Hg12 mi
9:00 PM41 °FSprinkles. Overcast.6 mph74%29.61 "Hg12 mi
8:00 PM40 °FSprinkles. Overcast.6 mph80%29.57 "Hg9 mi
7:00 PM40 °FPartly sunny.6 mph77%29.55 "Hg12 mi
6:00 PM43 °FScattered clouds.6 mph66%29.50 "Hg12 mi
5:00 PM42 °FSprinkles. Overcast.8 mph69%29.47 "Hg12 mi
4:00 PM43 °FOvercast.6 mph69%29.44 "Hg12 mi
3:00 PM41 °FThunderstorms. Overcast.6 mph87%29.41 "Hg6 mi
2:00 PM37 °FThundershowers. Overcast.5 mph90%29.41 "Hg2 mi
1:00 PM47 °FSprinkles. Overcast.8 mph59%29.35 "Hg12 mi
12:00 PM49 °FOvercast.12 mph60%29.35 "Hg12 mi
11:00 AM48 °FPartly sunny.10 mph66%29.35 "Hg12 mi
10:00 AM46 °FPartly sunny.8 mph75%29.38 "Hg12 mi
9:00 AM46 °FPartly sunny.7 mph75%29.35 "Hg12 mi
8:00 AM45 °FOvercast.5 mph75%29.35 "Hg31 mi
7:00 AM45 °FOvercast.6 mph71%29.32 "Hg12 mi
6:00 AM48 °FSprinkles. Overcast.8 mph84%29.29 "Hg12 mi
5:00 AM47 °FLight rain. Overcast.7 mph90%29.29 "Hg12 mi
4:00 AM47 °FRain. Overcast.7 mph92%29.32 "Hg6 mi
3:00 AM46 °FLight rain. Overcast.7 mph91%29.35 "Hg6 mi
2:00 AM47 °FLight rain. Overcast.6 mph85%29.38 "Hg12 mi
1:00 AM46 °FOvercast.3 mph91%29.44 "Hg6 mi
Weather by CustomWeather, © 2015

See weather overviewHow to use our weather pages